Weather History for RJAW - December, 2012

Change the Weather History Date:

Monday, December 10, 2012

  Actual Average Record
Temperature  
Mean Temperature 68 °F -  
Max Temperature 71 °F 71 °F 82 °F (2008)
Min Temperature 64 °F 66 °F 64 °F (1996)
Cooling Degree Days 2    
Growing Degree Days 18 (Base 50)    
Moisture  
Dew Point 57 °F    
Average Humidity 65    
Maximum Humidity 77    
Minimum Humidity 57    
Precipitation  
Precipitation 0.00 in - - ()
Sea Level Pressure  
Sea Level Pressure 29.86 in    
Wind  
Wind Speed 12 mph ()    
Max Wind Speed 18 mph    
Max Gust Speed -    
Visibility 6.2 miles    
Events Rain    
Averages and records for this station are not official NWS values.
T = Trace of Precipitation, MM = Missing Value Source: Averaged Metar Reports

Daily Weather History Graph

Daily Weather History Graph

Search for Another Location

Airport or City:

Trip Planner

Search our weather history database for the weather conditions in past years. The results will help you decide how hot, cold, wet, or windy it might be!

Date:

Astronomy

Dec. 10, 2012 Rise Set
Actual Time 7:08 AM ChST 5:46 PM ChST
Civil Twilight 6:43 AM ChST 6:11 PM ChST
Nautical Twilight 6:15 AM ChST 6:39 PM ChST
Astronomical Twilight 5:47 AM ChST 7:07 PM ChST
Moon 3:22 AM ChST (12/10) 2:54 PM ChST (12/10)
Length of Visible Light 11h 27m
Length of Day
10h 38m
Waning Crescent, 15% of the Moon is Illuminated
Dec 10
Waning Crescent
Dec 13
New
Dec 20
First Quarter
Dec 28
Full
Jan 5
Last Quarter

Hourly Weather History & Observations

Time (ChST) Temp. Dew Point Humidity Pressure Visibility Wind Dir Wind Speed Gust Speed Precip Events Conditions
1:00 AM 64.4 °F 57.2 °F 77% 29.86 in 6.2 mi North 13.8 mph - N/A Rain Light Rain Showers
4:00 AM 66.2 °F 57.2 °F 73% 29.83 in 6.2 mi NNW 10.4 mph - N/A   Mostly Cloudy
6:00 AM 68.0 °F 59.0 °F 73% 29.83 in 6.2 mi NW 8.1 mph - N/A   Mostly Cloudy
7:00 AM 68.0 °F 55.4 °F 64% 29.86 in 6.2 mi NNW 13.8 mph - N/A   Mostly Cloudy
8:00 AM 68.0 °F 53.6 °F 60% 29.86 in 6.2 mi North 13.8 mph - N/A   Mostly Cloudy
9:00 AM 69.8 °F 55.4 °F 60% 29.89 in 6.2 mi NNW 12.7 mph - N/A   Mostly Cloudy
10:00 AM 71.6 °F 55.4 °F 57% 29.89 in 6.2 mi NNW 11.5 mph - N/A   Mostly Cloudy
11:00 AM 71.6 °F 59.0 °F 64% 29.86 in 6.2 mi North 12.7 mph - N/A   Mostly Cloudy
12:00 PM 71.6 °F 55.4 °F 57% 29.86 in 6.2 mi NNW 16.1 mph - N/A Rain Light Rain Showers
1:00 PM 71.6 °F 59.0 °F 64% 29.86 in 6.2 mi North 18.4 mph - N/A   Mostly Cloudy
1:24 PM 69.8 °F 59.0 °F 68% 29.83 in 6.2 mi North 18.4 mph - N/A Rain Light Rain Showers
2:00 PM 69.8 °F 57.2 °F 64% 29.86 in 6.2 mi North 17.3 mph - N/A   Mostly Cloudy
2:44 PM 69.8 °F 57.2 °F 64% 29.83 in 6.2 mi North 13.8 mph - N/A Rain Light Rain Showers
3:00 PM 69.8 °F 57.2 °F 64% 29.80 in 6.2 mi North 12.7 mph - N/A Rain Light Rain Showers
3:16 PM 69.8 °F 59.0 °F 68% 29.83 in 6.2 mi North 18.4 mph - N/A   Mostly Cloudy
4:00 PM 69.8 °F 57.2 °F 64% 29.86 in 6.2 mi North 17.3 mph - N/A   Mostly Cloudy
5:00 PM 68.0 °F 55.4 °F 64% 29.86 in 6.2 mi North 16.1 mph - N/A Rain Light Rain Showers
6:00 PM 68.0 °F 55.4 °F 64% 29.89 in 6.2 mi North 16.1 mph - N/A Rain Light Rain Showers
7:00 PM 66.2 °F 57.2 °F 73% 29.89 in 6.2 mi NNE 13.8 mph - N/A Rain Light Rain Showers
10:00 PM 66.2 °F 55.4 °F 68% 29.95 in 6.2 mi North 12.7 mph - N/A Rain Light Rain Showers